Location: *
(33.8649°S, 62.1526°E)
Time: 11:51:50
(UTC+00:00)

ATLAS 2AS CENTAUR R/B - Pass Details

Date: 17 January 2021
Orbit: 947 x 1265 km, 63.7° (Epoch: 13 February)

Event Time Altitude Azimuth Distance (km) Brightness Sun altitude
Exits shadow 22:55:21 - 21° (NNE) 2,840 4.7 -21.7°
Reaches altitude 10° 22:55:52 10° 24° (NNE) 2,696 4.6 -21.6°
Maximum altitude 23:00:26 21° 71° (ENE) 1,980 4.4 -20.9°
Drops below altitude 10° 23:04:58 10° 118° (ESE) 2,688 5.9 -20.3°
Sets 23:08:07 0° 133° (SE) 3,651 7.2 -19.8°
